This is the latest recevied weather packets stored in our database for station/object KC0RPY. If no packets are shown the sender has not sent any weather packets the latest 1 day(s).
| Time | Temp. | Humidity | Pressure | Rain* | Wind** | Luminosity | Snow |
|---|---|---|---|---|---|---|---|
| 1836274784 | 21.67° C | 70% | 1017.7 hPa | 0 mm | 0.45 m/s, 111° | 0 W/m² | - |
| 1836274482 | 21.67° C | 70% | 1017.3 hPa | 0 mm | 0.45 m/s, 132° | 0 W/m² | - |
| 1836274336 | 21.67° C | 71% | 1017.3 hPa | 0 mm | 0.45 m/s, 131° | 0 W/m² | - |
| 1836274180 | 21.67° C | 70% | 1017.7 hPa | 0 mm | 0.45 m/s, 117° | 0 W/m² | - |
| 1836273874 | 21.11° C | 71% | 1017.7 hPa | 0 mm | 0.45 m/s, 131° | 0 W/m² | - |
| 1778054228 | 7.78° C | 86% | 1016 hPa | 0 mm | 0 m/s | 0 W/m² | - |
| 1778053924 | 7.78° C | 87% | 1016 hPa | 0 mm | 0 m/s | 0 W/m² | - |
| 1778053622 | 7.22° C | 86% | 1015.7 hPa | 0 mm | 0 m/s | 0 W/m² | - |
| 1778053319 | 7.78° C | 85% | 1015.7 hPa | 0 mm | 0 m/s | 0 W/m² | - |
| 1778053016 | 7.78° C | 85% | 1015.3 hPa | 0 mm | 0 m/s | 0 W/m² | - |
| 1778052714 | 7.78° C | 85% | 1015.3 hPa | 0 mm | 0.45 m/s, 126° | 0 W/m² | - |
| 1778052410 | 7.78° C | 84% | 1015.3 hPa | 0 mm | 0.45 m/s, 118° | 0 W/m² | - |
| 1778052108 | 7.78° C | 84% | 1015.3 hPa | 0 mm | 0.89 m/s, 128° | 0 W/m² | - |
| 1778051806 | 7.78° C | 84% | 1015.3 hPa | 0 mm | 0.89 m/s, 117° | 0 W/m² | - |
| 1778051503 | 7.22° C | 86% | 1015.7 hPa | 0 mm | 0.45 m/s, 119° | 0 W/m² | - |
| 1778051200 | 7.22° C | 87% | 1016 hPa | 0 mm | 0 m/s | 0 W/m² | - |
| 1778050897 | 7.22° C | 87% | 1015.7 hPa | 0 mm | 0.45 m/s, 115° | 0 W/m² | - |
| 1778050595 | 7.22° C | 88% | 1016 hPa | 0 mm | 0.45 m/s, 126° | 0 W/m² | - |
| 1778050291 | 7.22° C | 89% | 1016 hPa | 0 mm | 0.45 m/s, 113° | 0 W/m² | - |
| 1778049989 | 7.22° C | 88% | 1016 hPa | 0 mm | 0.89 m/s, 119° | 0 W/m² | - |
| 1778049684 | 7.22° C | 87% | 1016.3 hPa | 0 mm | 0.45 m/s, 91° | 0 W/m² | - |
| 1778049382 | 7.78° C | 87% | 1016.3 hPa | 0 mm | 1.34 m/s, 63° | 0 W/m² | - |
| 1778049079 | 7.78° C | 85% | 1016.7 hPa | 0 mm | 1.34 m/s, 81° | 0 W/m² | - |
| 1778048778 | 7.78° C | 84% | 1016.3 hPa | 0 mm | 1.34 m/s, 49° | 0 W/m² | - |
| 1778048474 | 7.78° C | 83% | 1016.3 hPa | 0 mm | 2.24 m/s, 35° | 0 W/m² | - |
* Rain latest hour (hover to see other rain measurements)
** Current wind speed in m/s (hover to see current wind gust speed)